Regional Weather Roundup
Issued by NWS

Home | Current Version | Previous Version | Text Only | Print | Product List | Glossary On
Versions: 1 2 3 4 5 6 7 8 9 10 11 12 13 14 15 16 17 18 19 20 21 22 23 24 25 26 27
000
ASUS44 KBMX 251810
RWRAL

ALABAMA REGIONAL WEATHER ROUNDUP
NATIONAL WEATHER SERVICE BIRMINGHAM AL
100 PM CDT SUN SEP 25 2016

NOTE: "FAIR" INDICATES FEW OR NO CLOUDS BELOW 12,000 FEET
WITH NO SIGNIFICANT WEATHER AND/OR OBSTRUCTIONS TO VISIBILITY.

THE REMARK "TC" DENOTES TEMPERATURE IN DEGREES CELSIUS.

ALZ001>011-014-016>018-020-251900-
NORTH ALABAMA

CITY           SKY/WX    TMP DP  RH WIND       PRES   REMARKS
MUSCLE SHOALS  SUNNY     94  58  29 W6        30.05F HX  93
6HR MIN TEMP:  62; 6HR MAX TEMP:  96;

HUNTSVILLE     MOSUNNY   96  59  29 W8        30.05F HX  95
6HR MIN TEMP:  66; 6HR MAX TEMP:  97;

DECATUR        SUNNY     94  60  32 NW7       30.05F HX  94
6HR MIN TEMP:  64; 6HR MAX TEMP:  95;

HALEYVILLE     FAIR      93  61  34 VRB6      30.08F HX  93
6HR MIN TEMP:  64; 6HR MAX TEMP:  94;

GADSDEN        SUNNY     94  63  35 CALM      30.05F HX  95
6HR MIN TEMP:  65; 6HR MAX TEMP:  94;

$$

ALZ012-013-022-023-030>036-040>044-251900-
WEST CENTRAL ALABAMA

CITY           SKY/WX    TMP DP  RH WIND       PRES   REMARKS
TUSCALOOSA     MOSUNNY   96  62  32 E5        30.01F HX  97
6HR MIN TEMP:  69; 6HR MAX TEMP:  97;

$$

ALZ015-024>027-033>036-040>044-251900-
CENTRAL ALABAMA

CITY           SKY/WX    TMP DP  RH WIND       PRES   REMARKS
BIRMINGHAM     PTSUNNY   95  59  30 CALM      30.06F HX  94
6HR MIN TEMP:  73; 6HR MAX TEMP:  95;

MONTGOMERY     MOSUNNY   95  64  35 N7        30.02F HX  97
6HR MIN TEMP:  71; 6HR MAX TEMP:  96;

SHELBY CO ARPT SUNNY     92  59  33 SE3       30.04F HX  91
6HR MIN TEMP:  68; 6HR MAX TEMP:  95;

MAXWELL AFB    SUNNY     94  63  34 VRB5      30.02F HX  95
6HR MIN TEMP:  70; 6HR MAX TEMP:  95;

GREENVILLE     NOT AVBL
$$

ALZ019-021-028-029-037-038-045>048-251900-
EAST CENTRAL ALABAMA

CITY           SKY/WX    TMP DP  RH WIND       PRES   REMARKS
ANNISTON       SUNNY     96  54  24 VRB5      30.05F HX  94
6HR MIN TEMP:  68; 6HR MAX TEMP:  96;

ALEXANDER CITY SUNNY     95  65  37 E3        30.06F HX  97
6HR MIN TEMP:  73; 6HR MAX TEMP:  95;

AUBURN         MOSUNNY   93  61  34 VRB7      30.06F HX  93
6HR MIN TEMP:  70; 6HR MAX TEMP:  93;

$$

ALZ051>064-251900-
SOUTHWEST ALABAMA

CITY           SKY/WX    TMP DP  RH WIND       PRES   REMARKS
MOBILE         PTSUNNY   89  70  53 CALM      30.03F HX  94
6HR MIN TEMP:  73; 6HR MAX TEMP:  93;

BROOKLEY FIELD MOSUNNY   89  75  63 SE9       30.03F HX  99
6HR MIN TEMP:  74; 6HR MAX TEMP:  90;

EVERGREEN      SUNNY     92  67  43 S5        30.03F HX  95
6HR MIN TEMP:  71; 6HR MAX TEMP:  93;

$$

ALZ049-050-065>069-251900-
SOUTHEAST ALABAMA

CITY           SKY/WX    TMP DP  RH WIND       PRES   REMARKS
DOTHAN         MOSUNNY   92  67  43 MISG      30.05F HX  95
6HR MIN TEMP:  71; 6HR MAX TEMP:  94;

OZARK          MOSUNNY   91  70  49 S6        30.02F HX  96
6HR MIN TEMP:  70; 6HR MAX TEMP:  91;

TROY           MOSUNNY   92  65  40 E5        30.03F HX  94
6HR MIN TEMP:  66; 6HR MAX TEMP:  93;

EUFAULA        FAIR      90  65  43 VRB6      30.02F THUNDER HX  92
6HR MIN TEMP:  69; 6HR MAX TEMP:  96;

$$




USA.gov is the U.S. government's official web portal to all federal, state and local government web resources and services.